EHI
0 0 1 1 1 1 1 2 4 6 6 6 8 10 14 19 24 28 30 31 30 32 36 37 35 35 40 48 51 49 47 43 37 31 28 26 23 18 15 15 12 8 7 6
0 0 1 2 2 2 2 3 4 6 7 9 13 16 18 20 24 27 28 28 29 32 37 38 36 35 39 46 50 49 46 42 36 31 28 27 23 19 16 15 13 10 7 7
0 0 1 2 2 3 4 6 7 9 13 18 22 24 22 21 23 25 25 25 28 33 37 38 36 35 37 42 47 47 43 38 34 32 30 27 23 18 15 13 12 10 8 7
0 0 0 1 2 4 8 11 14 17 22 25 27 27 24 22 22 22 23 25 28 34 37 36 34 33 35 40 44 45 43 38 33 32 33 29 23 17 13 10 9 8 8 7
0 0 0 1 3 5 10 15 19 24 27 28 28 28 24 22 22 23 24 27 32 36 37 35 31 31 34 38 41 43 43 39 36 36 37 33 25 17 12 10 7 6 6 5
0 0 0 2 4 6 9 15 20 24 27 29 28 26 23 22 23 25 26 29 34 37 37 34 31 31 35 38 39 40 41 41 41 41 38 34 28 20 14 10 6 4 4 5
0 0 0 2 6 7 9 14 17 18 22 26 26 24 23 23 24 25 27 28 31 34 35 33 31 32 36 38 38 38 39 39 40 39 36 33 30 24 18 13 9 5 4 5
0 0 1 3 5 7 10 14 14 14 16 22 24 24 25 26 24 23 26 26 25 27 29 29 29 32 36 38 38 37 37 35 33 32 32 32 32 29 23 18 13 8 6 5
2 2 3 4 5 8 12 16 15 13 15 20 24 25 25 25 24 24 25 24 22 22 24 26 26 29 33 34 35 35 34 31 28 27 30 32 33 31 26 20 16 12 9 7
5 5 6 7 7 9 15 18 17 16 19 24 26 26 25 25 27 27 25 23 21 20 22 25 25 26 27 28 30 32 31 28 26 25 28 30 31 30 26 20 17 15 12 10
6 6 7 8 9 11 15 17 16 17 21 26 28 30 29 31 33 32 28 26 24 22 21 23 24 23 22 23 25 27 26 25 24 24 25 25 24 22 20 15 13 12 11 11
4 4 5 8 10 13 15 16 15 16 19 23 28 32 35 36 37 35 31 30 28 25 21 20 22 22 20 20 21 21 21 20 20 21 20 18 16 15 12 8 5 5 6 6
5 5 6 9 13 15 16 16 14 14 17 20 24 30 33 35 35 33 30 30 28 24 20 18 19 19 18 17 18 18 17 17 17 16 17 15 13 11 8 4 1 1 1 2
9 9 10 11 13 16 17 16 14 14 16 18 22 26 29 31 31 29 27 25 22 19 18 16 15 15 14 14 15 16 15 14 14 14 15 14 12 9 7 4 1 0 0 0
12 13 13 12 13 15 16 16 16 16 17 20 23 25 27 28 27 26 24 21 18 16 15 14 13 13 12 11 12 13 13 11 10 11 13 12 10 7 5 3 1 1 1 0
12 12 13 12 13 15 16 17 17 18 19 22 23 23 24 25 25 24 22 19 16 14 13 13 13 13 12 10 10 11 10 8 7 8 9 9 8 7 5 3 1 1 2 1
9 10 11 11 12 14 15 17 18 18 20 21 20 19 19 21 21 22 21 18 14 12 12 13 13 14 13 9 8 9 8 7 5 5 5 5 6 6 5 4 3 2 2 2
6 6 7 8 9 11 13 15 16 17 18 17 16 14 15 16 17 19 18 16 12 10 11 12 12 13 12 8 6 8 9 8 6 4 4 4 4 4 4 5 4 3 2 1
3 3 4 4 5 7 10 12 14 14 14 13 12 11 11 11 12 13 13 12 10 9 10 10 9 10 10 7 5 7 8 7 6 5 5 4 3 2 3 4 4 4 2 1
3 2 3 3 3 4 6 8 10 11 11 10 9 9 9 8 8 8 8 8 7 7 6 6 7 8 8 7 6 6 6 5 4 4 4 4 2 1 1 3 4 4 3 3
3 3 2 2 2 2 3 4 6 8 9 9 8 8 8 7 6 5 5 5 4 4 4 4 5 6 7 7 5 4 4 3 3 3 3 2 1 0 1 2 4 4 3 3
2 2 1 1 1 1 1 2 3 4 5 6 7 7 7 6 5 5 5 4 4 3 3 3 4 5 6 5 5 4 3 3 3 3 2 1 0 0 1 2 3 3 3 4
1 1 0 0 0 0 0 1 1 1 2 3 4 5 4 3 3 3 3 3 3 2 2 3 3 4 4 4 6 5 4 3 3 2 1 0 0 0 0 1 2 2 3 3
0 0 0 0 0 0 0 0 0 0 0 1 2 2 2 1 1 1 1 1 1 1 1 1 2 2 2 5 6 5 4 3 3 2 0 0 0 0 0 0 1 1 1 1
0 0 0 0 0 0 0 0 0 0 0 0 1 1 1 0 0 0 0 0 0 0 0 0 0 0 1 4 5 4 3 3 3 2 1 1 0 0 0 0 0 0 0 0
0 0 0 0 0 0 0 0 0 0 0 0 0 0 0 0 0 0 0 0 0 0 0 0 0 0 1 2 2 3 3 3 3 3 3 2 1 0 0 0 0 0 0 0
0 0 0 0 0 0 0 0 0 0 0 0 0 0 0 0 0 0 0 0 0 0 0 0 0 0 0 1 1 2 3 3 3 3 3 2 1 1 1 1 0 0 0 0
Wind_Speed
5 6 3 4 5 4 4 8 8 8 7 9 9 9 8 7 7 6 6 6 6 7 7 7 7 8 9 9 8 9 8 8 7 6 6 6 5 5 4 4 5 4 4 3
3 3 3 4 5 4 2 4 5 5 4 6 5 4 6 8 9 9 7 7 7 7 7 7 8 8 8 8 8 8 8 8 7 6 6 6 6 5 5 4 4 4 4 3
3 4 3 4 5 3 2 2 6 6 6 5 6 7 8 8 8 9 8 7 7 7 7 8 8 8 8 8 8 8 8 7 7 7 7 6 6 5 5 4 4 4 4 4
1 2 4 8 4 2 3 1 2 4 4 8 8 7 6 6 7 7 6 6 6 6 6 6 6 6 7 7 7 8 7 7 7 7 7 6 6 6 5 4 4 4 4 4
3 2 4 6 4 1 2 2 1 5 6 7 8 8 4 2 5 6 7 6 6 5 6 6 6 7 8 7 7 6 7 7 7 7 8 7 7 6 5 4 4 3 4 5
3 3 5 6 5 3 4 2 3 4 8 7 6 5 3 2 4 4 5 5 5 5 5 5 5 7 8 8 7 7 7 7 6 7 7 8 7 6 4 4 4 4 3 3
4 3 6 6 6 3 3 5 3 3 7 6 4 5 5 4 5 5 5 6 7 6 5 4 5 7 7 7 7 6 6 6 5 5 6 6 6 5 5 5 4 4 3 2
4 3 7 5 3 2 4 2 1 3 5 6 5 4 4 5 5 5 5 6 6 6 4 3 5 6 6 5 5 5 6 6 6 5 5 5 6 5 5 6 5 4 3 2
6 7 5 1 2 2 3 3 2 3 4 6 6 4 3 3 5 5 6 6 5 5 4 3 3 5 5 3 4 5 5 5 4 4 4 5 6 6 5 5 4 4 3 3
1 1 1 1 3 3 3 3 3 3 3 5 6 5 4 4 5 5 5 5 5 5 5 3 2 3 4 4 5 6 5 4 4 4 3 3 4 4 5 5 5 4 4 3
1 1 3 4 3 3 3 4 5 5 3 4 6 5 5 4 5 5 5 4 5 5 5 4 3 3 4 5 6 6 5 4 4 4 3 3 3 3 4 4 5 6 5 4
4 5 3 3 2 2 2 2 2 3 2 3 4 4 4 4 4 4 5 4 4 5 5 4 4 3 3 5 6 6 5 4 4 4 3 2 3 2 1 2 3 5 6 6
4 4 3 2 1 1 1 1 2 2 3 2 2 3 4 4 3 4 4 4 5 5 5 5 4 3 3 4 5 6 5 4 3 3 3 4 4 4 2 1 0 2 4 6
2 2 1 0 1 2 2 2 2 2 4 4 3 3 4 3 4 4 4 4 4 5 5 5 4 3 3 4 5 5 4 4 3 3 3 3 4 4 4 3 2 1 2 4
2 2 3 1 1 2 2 1 2 2 3 3 3 4 4 4 3 3 3 4 4 4 4 4 3 3 2 3 4 4 4 3 2 3 3 3 3 3 3 3 3 2 1 1
2 0 2 2 1 1 1 1 2 2 3 4 3 3 3 4 4 3 2 4 4 4 4 3 3 2 3 3 3 3 3 4 4 3 3 3 3 3 3 4 4 4 3 3
1 1 1 1 1 1 1 1 3 3 4 4 4 3 4 4 4 3 2 2 3 3 3 3 3 2 3 4 3 3 3 3 4 3 3 3 3 4 4 4 4 4 4 5
3 3 3 3 2 1 0 1 3 4 4 4 4 4 5 5 4 3 2 2 2 1 1 2 2 2 2 3 3 2 2 3 3 3 3 3 3 3 4 4 5 5 3 4
1 1 1 1 2 2 2 3 4 4 4 4 4 4 3 3 3 3 2 3 3 2 2 2 3 2 2 2 3 2 2 2 2 2 2 3 3 3 3 4 4 4 4 4
2 2 2 2 2 3 4 4 5 4 4 4 5 4 3 2 2 2 2 1 2 2 2 2 2 2 2 2 2 2 2 2 2 2 2 3 2 3 3 3 3 4 4 4
3 3 2 2 3 4 4 4 4 4 3 4 4 3 2 1 2 2 2 0 2 1 1 2 1 1 2 2 2 2 2 2 2 2 3 3 3 3 3 3 3 3 3 4
2 2 2 2 4 4 3 3 4 3 3 3 3 3 2 1 1 1 1 2 2 1 1 1 1 2 2 2 2 2 2 2 2 2 2 2 3 3 3 3 3 3 3 3
2 1 2 2 3 3 3 3 2 2 2 2 2 2 2 1 1 1 1 2 1 1 1 1 1 2 2 2 2 2 2 2 2 2 2 2 3 3 3 3 3 3 3 3
2 1 1 2 3 4 3 1 1 1 1 1 1 1 1 1 1 1 2 2 2 2 1 1 2 2 2 1 1 2 2 2 2 2 2 2 2 2 2 2 2 2 3 3
2 2 2 3 3 2 1 1 2 2 2 1 0 0 1 1 2 2 2 2 2 2 1 1 2 2 2 1 2 2 2 2 2 2 2 2 2 2 2 1 2 2 3 3
1 1 1 1 1 1 1 1 1 0 0 0 1 1 1 0 1 1 0 1 2 2 1 1 1 2 1 1 1 1 1 1 1 1 1 1 1 1 1 1 1 1 2 2
2 1 1 1 1 1 1 1 1 1 1 1 1 1 1 0 0 0 1 1 0 0 1 0 1 1 1 1 1 1 1 1 1 1 1 1 1 1 1 1 1 1 1 2
Wind_Direction
221 233 234 257 265 248 191 181 178 204 193 208 200 184 172 149 135 125 129 139 155 162 161 165 164 166 168 168 168 166 165 170 176 173 166 160 157 157 153 148 147 144 131 123
299 292 300 298 287 267 220 182 171 161 210 220 187 148 143 147 151 149 152 163 161 161 162 165 168 168 165 166 168 164 167 174 170 163 161 160 159 154 150 149 146 136 138 138
263 299 14 284 257 226 206 187 157 180 212 158 132 145 159 159 156 154 165 167 164 166 172 174 173 167 165 165 158 159 165 166 162 161 160 162 160 153 157 159 148 144 149 143
152 50 221 244 271 204 138 76 159 159 162 156 151 146 139 143 148 149 156 159 162 165 162 163 161 159 155 151 156 162 165 167 164 161 161 158 154 159 162 151 151 159 162 155
122 167 271 291 311 340 122 350 3 134 129 123 114 84 56 104 140 154 154 154 156 158 153 154 157 155 148 152 161 165 167 170 170 167 163 161 164 166 161 152 154 164 164 156
132 157 223 251 291 303 96 351 328 134 139 137 117 122 210 184 131 127 130 131 130 129 123 137 154 151 150 157 163 177 178 172 167 166 167 170 170 165 158 152 153 146 142 152
164 198 252 264 295 21 129 224 275 126 141 143 150 177 178 145 130 130 126 124 125 126 127 146 153 149 153 161 177 179 162 151 152 160 167 167 161 155 150 148 143 144 145 151
156 181 246 290 20 138 204 212 168 123 134 127 127 123 128 131 135 129 120 117 122 122 126 140 142 145 151 166 169 150 146 148 153 157 165 161 154 153 152 151 151 158 156 167
180 204 229 267 151 186 132 117 98 101 132 129 123 135 149 156 149 141 134 129 125 123 116 113 127 135 141 155 140 135 137 145 150 152 154 154 158 160 159 160 162 171 173 185
97 269 289 32 59 54 77 82 81 96 124 132 132 143 157 166 155 151 142 136 128 124 122 120 123 131 143 140 134 130 135 141 144 147 146 148 156 160 166 173 175 178 184 189
108 285 15 13 19 24 44 49 59 52 71 110 134 151 155 153 152 153 145 142 140 140 142 147 137 131 141 143 138 134 139 146 149 146 152 153 152 164 177 185 184 182 190 184
215 221 185 237 292 12 31 32 74 73 57 64 119 136 138 146 152 149 147 141 139 137 141 146 140 136 149 155 147 143 147 154 154 148 148 154 147 123 63 172 180 191 199 193
211 220 188 199 286 342 266 247 193 140 136 116 92 127 134 140 148 149 147 145 151 155 152 149 142 142 149 154 148 148 157 160 154 157 164 171 173 172 180 276 251 224 221 212
192 136 96 259 281 291 266 224 173 119 131 139 137 123 122 126 138 144 151 154 146 143 144 146 145 154 165 156 149 149 150 159 158 163 170 174 178 184 183 179 194 257 259 229
284 206 188 193 312 308 271 150 109 112 126 124 125 122 128 135 143 147 145 136 129 131 139 144 150 173 169 158 156 154 152 157 166 165 169 173 180 185 187 185 190 208 224 263
267 54 103 97 51 303 293 129 136 145 135 120 117 130 137 136 132 130 144 143 141 151 157 158 168 183 172 166 165 166 166 172 174 173 172 178 187 192 194 192 196 204 209 203
190 173 144 123 284 279 269 209 160 142 133 126 133 137 123 115 114 121 138 144 146 163 171 167 181 186 174 170 169 176 176 184 186 179 185 189 195 201 200 193 198 207 213 200
194 189 180 179 174 145 93 160 138 136 135 131 128 130 135 138 147 159 161 139 125 131 173 175 172 169 169 169 172 174 175 183 192 196 198 197 200 204 201 197 202 207 212 199
115 132 130 112 135 142 140 128 125 120 124 125 123 124 132 137 146 153 146 132 142 179 230 198 167 167 183 191 179 174 177 192 198 199 197 197 198 194 197 201 205 207 201 188
87 91 88 70 79 112 112 107 114 119 124 123 115 111 116 139 146 137 128 147 208 209 201 182 172 181 195 191 171 173 174 186 193 197 200 200 202 207 207 207 207 204 199 190
105 104 79 74 94 100 100 103 100 105 111 110 117 129 142 155 148 138 136 197 285 237 155 151 169 195 197 189 174 178 181 192 201 205 208 208 206 210 210 210 209 207 202 196
99 96 92 106 98 90 86 89 97 104 109 109 113 119 121 120 106 99 197 214 231 204 175 182 198 191 184 175 177 180 191 196 200 201 208 209 207 213 218 216 218 218 211 204
86 118 126 112 115 116 95 90 97 111 122 131 138 143 160 185 168 158 255 267 216 172 169 200 186 182 184 182 190 197 204 204 203 202 201 205 211 215 217 216 217 215 212 208
89 89 105 104 102 101 99 100 110 114 124 118 144 158 163 158 307 266 225 223 193 175 192 198 187 193 196 218 219 212 216 213 207 208 210 211 213 215 215 211 214 214 206 208
73 65 65 83 92 105 130 117 94 89 95 86 17 272 217 195 209 236 231 215 196 192 212 204 191 194 207 233 226 217 218 223 216 212 209 210 215 213 209 204 204 203 199 198
57 71 76 120 142 143 120 108 112 144 143 183 283 268 259 263 216 209 216 215 205 199 204 209 205 204 218 228 221 215 212 221 223 214 201 191 193 191 190 196 211 209 204 200
42 44 50 46 34 84 117 122 139 206 218 204 252 274 251 237 201 187 160 161 162 215 235 220 202 200 208 203 195 195 188 190 182 168 161 162 157 166 190 186 185 197 194 178